Theta_e
295 297 299 299 299 300 300 301 301 301 301 302 302 302 303 302 301 301 301 303 304 306 305 305 306 308 310 311 312 312 312 313 314 314 315 315 314 315 315 315 316 317 319 320 320 319 322 326 324 322 318 311
293 294 297 296 296 297 298 298 299 298 298 299 299 300 299 299 298 298 299 301 301 302 302 302 303 306 308 309 310 310 310 311 313 313 313 313 313 312 312 313 313 314 315 316 316 317 318 321 323 321 320 310
286 292 295 294 294 295 296 296 297 296 296 295 295 297 296 297 296 296 296 298 299 300 300 299 300 303 306 307 308 308 307 309 310 311 311 311 311 310 309 309 309 310 312 312 312 314 314 315 320 321 317 310
283 289 293 292 292 293 294 294 294 294 293 293 292 293 293 293 291 292 291 296 293 297 297 296 296 300 303 305 304 305 304 306 308 308 309 309 309 308 307 306 304 306 308 309 309 309 309 311 314 313 311 310
284 286 291 288 290 291 292 291 292 291 290 290 288 289 290 290 287 288 288 289 290 293 291 293 295 297 300 302 302 302 301 302 304 306 307 306 306 305 304 303 301 302 304 305 306 305 305 307 307 307 308 308
284 285 287 282 282 284 287 288 290 285 285 287 283 288 285 285 285 286 286 287 289 288 288 289 292 294 296 299 300 301 298 299 301 302 303 303 303 302 301 301 296 297 299 301 302 302 303 300 303 305 306 306
284 283 282 282 282 284 287 286 286 282 284 281 282 283 283 285 283 286 285 285 287 287 289 287 290 291 293 295 296 297 295 296 297 299 300 300 300 299 299 296 296 296 296 296 299 299 298 298 300 301 303 303
282 281 282 281 281 282 282 281 283 281 281 281 281 282 282 283 283 284 283 286 287 286 283 284 287 289 289 290 291 293 290 292 293 295 295 296 297 295 295 295 295 296 295 295 295 296 296 297 298 298 299 300
281 283 282 281 281 281 282 281 281 281 281 281 281 281 282 282 282 283 281 281 282 282 282 282 282 283 283 284 284 289 285 285 286 288 287 288 291 291 292 293 294 295 295 295 295 295 295 296 297 297 297 296
283 285 281 280 281 282 282 281 281 280 280 281 281 281 282 283 280 281 280 280 280 281 281 281 281 282 282 283 283 285 284 284 284 285 286 286 287 289 291 291 293 295 295 294 294 294 295 295 296 296 297 296
281 281 281 280 282 283 281 281 282 280 280 281 281 281 282 282 279 280 279 279 278 279 280 280 281 281 282 282 282 283 283 283 283 284 284 285 285 287 288 290 291 293 294 294 294 294 294 295 295 295 296 296
280 280 280 281 282 280 283 284 282 280 280 282 280 282 281 284 279 279 278 278 278 278 278 279 280 280 281 281 281 282 282 281 282 282 283 283 284 285 286 287 288 291 292 293 294 294 294 294 294 294 295 296
278 279 279 279 279 278 284 280 280 280 280 280 280 281 281 282 279 279 278 277 278 278 278 278 278 279 280 280 281 281 280 281 280 280 281 281 282 283 284 285 285 288 289 292 293 293 293 293 294 294 294 295
277 277 277 278 278 278 281 278 279 281 280 279 279 279 280 280 281 280 278 277 277 277 277 277 277 279 278 279 280 280 279 280 280 279 279 280 280 280 281 282 283 285 286 288 291 293 293 293 293 293 294 294
277 278 276 279 277 277 278 279 280 279 278 278 279 279 280 280 280 282 278 278 277 277 277 277 277 277 278 277 278 279 278 279 279 279 279 279 279 278 280 280 281 283 283 285 287 290 291 292 293 293 293 293
276 277 277 278 277 277 278 279 277 277 278 279 278 279 279 279 278 281 279 278 278 279 277 276 277 277 277 277 277 278 277 278 278 278 278 279 279 278 279 278 279 281 281 282 283 285 287 291 291 292 293 292
276 276 276 277 276 278 279 277 276 276 277 277 278 278 278 278 279 282 279 278 278 281 276 276 276 276 278 277 277 277 277 277 277 277 277 277 278 278 278 277 278 280 279 280 281 282 284 288 289 291 292 292
275 276 277 278 276 278 277 276 275 277 276 277 277 277 277 277 278 281 277 278 277 277 277 277 276 276 276 277 276 276 276 275 275 276 276 277 276 278 277 276 277 277 277 278 280 280 282 284 287 290 291 292
276 276 276 275 276 275 275 276 274 275 276 276 276 276 276 277 279 278 277 277 276 276 276 276 276 276 276 276 276 274 275 275 275 275 275 277 275 276 275 276 276 277 277 277 278 279 281 281 284 287 289 291
274 274 274 274 277 275 274 274 274 274 275 275 275 276 276 276 279 277 276 276 276 275 276 275 275 275 275 276 275 274 274 275 274 275 275 275 275 274 275 276 275 276 276 277 278 279 280 281 282 284 287 288
273 273 273 273 273 274 274 273 272 273 274 274 274 275 275 276 278 276 276 276 275 274 275 274 274 275 274 276 274 274 273 273 275 274 275 274 276 275 274 274 275 275 276 277 278 278 279 280 281 282 285 287
273 273 273 272 272 274 272 272 272 273 273 273 274 274 275 275 276 276 274 275 275 274 276 274 273 274 274 274 274 273 273 273 274 274 273 273 274 275 274 274 274 275 276 277 277 277 278 279 280 282 283 286
272 272 272 272 271 271 271 272 272 273 272 272 273 273 274 276 274 275 274 274 274 273 274 273 273 273 273 273 273 273 273 273 274 275 274 273 273 275 274 275 275 275 276 276 276 277 277 279 280 281 282 285
271 271 271 271 270 271 271 271 273 273 272 272 272 274 274 273 272 273 274 273 273 273 274 272 272 272 273 273 273 273 272 272 272 273 273 273 274 273 274 275 275 275 275 275 275 276 277 277 278 279 282 283
270 269 269 270 270 269 270 271 272 271 271 272 272 272 273 273 272 272 272 273 272 272 273 273 272 272 272 272 273 273 272 273 273 274 274 274 274 274 273 273 274 274 276 274 273 275 275 276 278 281 283 283
270 270 269 270 269 269 269 269 269 270 270 272 272 272 272 272 271 271 271 273 272 273 272 271 271 271 271 271 271 273 273 273 274 273 273 273 272 273 273 272 274 274 274 272 272 271 272 275 278 280 281 281
270 269 270 270 270 269 269 270 271 270 272 272 271 271 271 272 271 271 271 271 272 273 272 271 271 271 271 271 273 271 271 271 271 272 272 272 272 271 273 273 274 273 274 271 273 272 273 270 274 277 278 280
271 271 271 271 270 270 269 269 271 271 271 270 270 270 271 271 271 271 271 271 271 273 271 271 271 271 271 271 272 271 270 270 270 271 272 272 272 273 270 271 272 274 274 272 272 266 269 271 273 271 273 276
270 271 270 270 270 270 270 270 269 269 269 270 270 271 270 270 270 271 271 271 271 272 271 271 271 271 271 271 271 271 270 270 271 271 272 272 272 271 270 271 271 272 273 273 274 272 270 265 268 268 274 274
270 270 269 268 267 266 267 266 267 267 267 268 268 268 270 270 270 270 270 270 271 271 272 271 271 271 271 270 270 271 270 270 270 270 271 272 272 272 272 271 271 270 273 273 274 274 273 273 270 271 271 273
271 269 268 268 267 267 266 266 267 268 269 269 269 269 269 269 270 270 270 270 270 270 271 271 271 271 270 270 270 271 270 269 270 270 270 272 271 271 272 271 269 269 270 272 273 273 273 274 274 274 272 268
Wind_Speed
21 20 21 21 22 22 22 23 23 23 24 23 23 23 21 21 21 22 23 23 23 24 24 24 25 25 25 25 25 25 26 26 26 26 26 26 27 27 27 25 24 25 23 23 20 21 13 2 5 4 3 1
19 20 20 21 21 21 21 22 22 23 22 23 24 22 22 20 19 20 20 21 21 22 22 23 23 24 24 24 25 25 25 26 25 25 26 25 26 26 27 26 26 25 25 24 22 21 19 11 2 5 3 1
9 19 19 20 20 20 21 21 20 22 21 21 23 23 22 19 18 18 19 20 20 20 21 22 23 24 23 23 25 25 24 25 26 25 24 25 25 25 25 26 26 25 25 23 24 22 20 19 8 5 3 2
6 11 18 19 19 20 19 20 19 21 20 19 20 22 22 20 15 14 13 20 16 20 20 21 21 23 23 22 23 24 24 24 24 24 24 24 25 25 24 25 24 25 24 24 23 24 23 19 16 6 5 4
6 7 15 10 14 18 18 19 18 19 17 15 14 17 18 17 12 10 8 10 12 16 13 18 21 22 23 22 22 23 23 23 23 23 24 23 24 24 24 23 22 23 23 23 23 22 21 19 10 8 7 6
5 5 8 7 6 6 10 11 13 9 8 9 6 12 10 9 10 9 9 9 11 9 13 13 20 20 22 23 23 22 22 22 23 23 22 23 23 23 22 21 11 12 17 22 22 20 20 11 9 10 8 7
5 6 5 6 6 5 9 8 7 6 6 4 5 6 6 6 7 9 9 9 11 10 14 13 18 20 21 22 22 22 21 21 22 22 22 22 21 21 21 11 9 9 9 10 18 17 11 8 9 10 9 8
5 5 4 5 5 6 6 6 5 5 5 5 4 5 5 5 5 6 7 12 15 13 8 9 14 18 18 18 19 22 15 18 18 21 20 21 21 13 8 8 8 8 8 9 9 9 9 9 8 9 8 8
6 5 6 5 6 6 5 6 5 5 5 5 5 4 4 4 4 4 5 6 8 8 8 8 8 8 9 9 10 16 11 11 11 12 10 10 11 9 9 9 8 8 8 8 9 8 8 9 9 8 8 8
6 7 6 6 7 7 6 6 6 5 5 5 5 4 4 4 4 4 4 3 5 7 8 9 8 8 7 8 9 10 9 9 10 10 10 10 10 9 9 9 9 8 8 8 8 7 8 8 8 8 7 7
5 6 6 6 7 8 8 7 7 6 6 6 5 4 4 5 4 4 3 4 3 5 6 7 8 8 7 8 8 9 8 9 9 9 9 10 10 10 9 9 9 8 8 7 7 7 7 7 7 8 7 7
5 5 5 6 6 7 8 9 8 7 6 6 6 4 5 3 4 4 4 3 3 3 3 4 6 6 7 7 7 7 7 8 9 8 9 10 11 11 10 10 10 8 8 8 8 7 6 7 7 7 7 7
4 4 5 5 5 6 8 7 8 8 7 6 6 5 5 3 5 4 3 3 4 3 3 3 4 4 5 6 6 7 7 7 8 8 9 9 9 10 10 10 10 10 9 7 7 7 8 7 7 7 6 7
5 5 4 5 5 5 6 7 8 8 7 7 7 7 5 4 3 4 3 3 4 3 3 3 3 3 4 5 6 6 8 7 7 8 8 8 8 9 9 9 10 10 10 9 6 7 8 8 6 6 6 6
4 4 4 5 4 5 6 6 7 7 8 8 8 8 8 6 4 3 3 3 4 4 4 3 3 3 2 4 5 5 7 6 7 7 7 8 8 8 8 8 8 9 10 10 9 8 8 8 7 6 6 6
4 4 4 4 5 5 5 5 6 6 7 8 8 8 8 7 7 3 3 3 4 4 4 4 4 4 3 3 3 5 5 7 7 6 7 8 8 8 7 7 7 8 8 9 9 9 9 8 8 7 6 6
3 3 3 4 4 4 5 5 5 5 6 7 8 8 9 9 7 4 3 4 5 5 5 5 4 4 4 3 4 3 4 6 6 7 7 8 8 8 8 9 8 7 7 8 9 9 10 8 8 8 6 5
2 3 3 3 4 3 4 4 5 5 5 6 7 8 9 9 8 6 5 6 6 6 6 5 5 4 5 5 4 4 4 5 5 6 8 8 8 8 8 9 9 9 8 7 8 8 9 8 8 7 8 6
2 3 2 3 3 4 3 4 4 5 5 5 5 6 7 8 7 8 7 7 6 6 6 6 6 6 5 5 5 5 5 4 4 4 6 7 9 8 8 8 8 8 8 9 9 8 8 9 9 7 7 7
2 3 3 2 4 4 3 4 4 5 4 5 5 5 6 6 6 7 6 6 6 5 4 5 5 5 6 6 5 6 5 5 6 5 5 5 7 9 9 10 10 8 9 9 9 9 8 8 9 8 7 7
2 3 3 3 3 4 3 3 4 5 4 5 4 5 5 5 5 6 6 6 6 6 5 6 5 6 7 6 6 6 6 6 5 6 6 6 6 5 8 9 11 10 9 10 10 9 9 8 8 8 7 7
1 3 3 2 4 4 4 3 4 5 4 4 5 5 5 4 4 5 6 5 6 5 5 5 4 5 6 6 6 6 6 6 5 5 5 6 5 6 6 7 9 10 11 10 11 11 10 9 7 7 8 7
2 3 4 2 3 3 4 4 4 4 4 5 5 5 4 3 4 5 6 4 6 5 5 5 5 5 5 5 5 5 6 6 6 5 5 6 6 4 4 5 7 8 10 11 10 11 11 8 8 7 7 8
3 3 4 5 3 3 3 4 4 3 4 5 5 4 3 4 3 4 5 4 4 5 5 4 5 5 5 5 5 5 6 6 5 6 6 6 6 7 5 3 6 7 9 10 10 10 11 9 8 8 8 8
2 3 5 4 4 5 4 5 5 5 5 5 3 4 3 3 3 4 4 5 4 5 5 4 4 4 4 4 5 4 5 4 5 5 5 5 4 7 8 5 4 6 8 9 10 9 10 11 6 8 8 7
2 2 5 5 4 4 5 5 5 5 5 2 3 4 3 3 3 3 4 5 4 4 4 4 4 4 4 4 4 4 4 4 5 5 5 4 5 3 5 5 4 6 7 6 8 12 13 10 8 4 2 3
3 3 5 3 3 4 5 4 4 5 4 2 2 3 3 4 3 4 4 4 5 3 3 3 3 4 4 4 4 5 5 4 4 5 4 4 5 7 2 4 4 4 3 4 7 7 6 6 11 4 5 2
3 5 3 2 3 5 4 5 6 6 3 2 3 4 3 3 3 3 4 4 4 3 2 3 4 4 4 4 4 5 5 5 5 5 5 4 5 5 7 4 2 2 2 2 6 5 2 6 4 8 4 10
4 5 2 3 4 4 4 3 4 4 3 2 4 5 4 4 3 4 5 4 3 3 3 3 3 3 3 3 4 4 5 4 5 5 5 6 6 5 6 6 4 2 1 2 2 4 4 5 3 4 8 14
4 4 3 3 4 5 5 6 5 5 4 5 5 5 4 3 3 5 5 4 3 3 3 3 4 2 3 3 4 4 4 4 4 5 4 5 4 5 6 6 5 4 4 3 5 4 5 4 3 7 9 8
5 3 3 3 3 4 5 7 6 4 5 5 5 5 4 5 4 4 5 5 3 3 4 3 2 2 4 4 4 5 4 4 4 3 3 5 4 4 5 6 6 6 6 4 1 3 5 7 4 4 6 4
Wind_Direction
360 356 359 0 360 360 1 1 1 3 2 2 4 4 6 8 4 3 359 1 0 360 360 359 357 351 351 352 354 3 7 4 10 10 9 9 9 6 6 6 7 9 10 13 8 7 351 265 141 122 122 89
356 356 356 359 359 358 359 0 1 3 4 1 0 2 3 5 6 2 0 1 1 1 2 359 357 351 351 351 354 2 5 6 6 9 9 10 10 9 7 4 6 5 7 8 9 5 4 8 40 95 90 63
348 351 352 357 356 357 358 358 1 3 4 5 359 359 0 1 6 3 359 1 1 3 2 358 357 350 351 354 354 359 2 7 5 7 8 9 10 11 8 8 6 1 2 5 8 7 3 3 12 67 81 33
340 338 347 351 351 355 354 357 359 360 2 5 3 359 357 358 3 4 360 1 0 2 2 358 356 353 352 356 359 358 0 3 3 5 5 8 9 8 8 12 6 1 358 1 5 8 5 4 20 25 20 8
331 329 341 342 342 347 348 354 356 357 359 1 2 2 356 356 356 1 2 1 358 359 358 357 356 352 352 356 2 2 2 1 359 2 3 6 9 5 8 10 7 4 357 358 0 3 4 6 15 8 10 356
322 323 331 330 331 328 341 345 350 354 354 355 359 357 356 353 353 355 358 1 3 0 357 353 356 353 354 356 360 2 4 1 358 359 360 4 6 4 6 6 9 359 356 354 358 358 359 6 3 9 7 358
316 321 316 325 323 322 333 335 341 344 347 345 352 353 352 356 349 351 352 357 0 3 1 355 354 355 357 357 357 359 2 1 358 358 356 359 4 5 1 4 2 0 356 349 352 357 354 357 4 6 5 10
312 310 310 317 314 324 319 327 327 332 336 337 345 349 349 349 349 348 350 352 355 359 359 353 357 354 357 357 356 357 359 358 356 355 354 354 359 360 355 358 359 356 353 350 346 352 352 346 353 9 5 7
308 302 314 310 312 315 311 317 316 324 327 328 335 343 343 335 347 342 348 345 349 354 351 353 355 356 354 356 356 357 357 357 351 353 347 346 355 351 354 354 358 355 349 346 346 349 352 345 343 356 7 9
309 319 317 315 318 312 307 314 309 317 320 319 327 333 333 341 335 335 343 341 348 350 350 351 354 353 358 356 358 357 359 356 351 352 347 352 349 350 351 353 351 349 345 339 339 344 349 349 345 347 358 9
326 331 325 326 322 329 325 310 307 312 309 309 314 321 327 336 328 331 333 338 338 346 350 351 350 350 354 2 1 0 357 356 357 351 352 352 350 348 349 352 351 343 342 337 333 336 344 346 345 345 352 359
355 348 348 345 348 342 324 326 315 305 299 302 309 310 312 319 319 322 336 329 332 323 351 348 345 346 352 358 360 5 359 357 357 353 359 353 352 350 352 349 346 344 343 341 336 332 339 342 343 345 346 354
352 351 357 352 351 344 340 337 324 308 300 301 302 303 307 308 314 315 328 325 318 316 348 334 342 343 351 356 354 1 0 4 354 1 357 358 354 353 350 350 346 345 340 341 339 335 332 336 339 339 342 352
358 354 355 350 351 338 347 344 335 331 318 310 308 304 301 299 291 299 314 308 315 336 334 341 330 346 347 354 358 357 2 357 359 357 355 357 357 355 350 349 347 345 340 339 341 341 333 327 327 332 336 346
360 355 355 353 348 345 350 340 347 345 337 328 320 310 309 299 288 299 309 315 313 326 332 334 332 340 347 5 355 360 357 354 358 355 357 356 354 353 348 346 345 344 344 339 339 341 338 326 323 327 337 343
2 2 352 355 355 347 344 344 349 342 344 342 334 327 321 309 295 290 306 304 319 322 335 329 333 332 12 3 359 1 352 359 354 354 352 351 353 345 346 342 345 345 341 338 337 335 333 329 330 326 331 337
352 359 349 6 348 340 345 344 346 342 346 340 344 344 344 332 313 308 303 314 326 338 333 329 335 348 3 358 6 359 360 359 352 356 355 353 352 346 348 345 344 343 340 335 333 333 327 329 326 323 324 326
0 354 347 5 337 337 344 345 343 337 339 341 345 346 346 350 336 330 344 360 354 344 337 336 342 359 357 351 355 357 5 5 354 360 356 350 353 347 351 345 342 340 338 333 328 326 324 324 320 321 320 314
359 356 339 345 332 326 337 338 339 327 330 339 342 343 346 350 354 16 10 12 9 353 358 357 353 360 344 345 351 360 350 360 356 3 360 350 350 343 345 341 338 336 332 328 326 324 323 321 317 317 310 308
354 338 322 342 337 316 325 333 332 325 325 326 328 338 341 344 347 12 2 5 5 357 1 3 356 340 346 346 352 351 347 358 356 356 355 354 350 345 343 342 338 338 331 325 321 319 316 314 314 308 305 302
347 328 319 331 316 300 323 325 321 315 317 321 325 331 327 337 345 6 355 360 355 0 346 2 350 342 347 344 353 347 349 357 347 356 349 353 351 350 337 341 335 336 333 326 320 316 313 309 307 305 302 296
321 315 307 317 313 319 316 303 309 296 317 318 321 316 315 340 3 5 353 359 354 354 348 359 346 344 345 350 350 348 353 347 344 351 356 351 347 347 343 341 340 334 330 327 321 317 312 308 301 303 301 291
352 319 299 277 312 310 304 314 302 298 313 315 307 307 324 6 16 359 353 354 355 345 348 348 346 347 341 350 345 346 348 347 351 352 360 357 339 350 329 334 334 329 325 324 318 312 310 307 307 297 289 285
330 314 310 306 299 295 295 299 297 305 307 306 308 329 6 4 7 350 347 345 343 336 334 342 335 338 340 342 347 341 352 343 350 344 351 348 341 338 337 346 323 337 329 319 315 313 311 308 298 290 274 267
306 314 310 287 293 299 300 301 312 314 304 303 333 345 342 350 350 340 339 342 335 328 326 332 327 335 340 336 336 336 341 325 331 342 341 330 344 335 334 338 329 340 326 332 326 323 317 312 293 271 268 261
310 294 290 292 294 299 300 302 304 309 305 314 350 336 325 336 335 335 329 324 327 315 319 332 340 338 331 334 320 333 326 330 332 335 327 326 335 321 321 322 335 336 348 358 342 338 326 325 318 268 284 263
292 289 288 275 294 297 295 277 285 286 282 303 323 310 307 325 322 329 320 315 312 316 331 335 333 321 315 320 325 330 327 324 327 311 313 320 322 319 295 302 322 336 32 323 332 313 314 343 341 340 3 328
290 282 279 288 282 279 271 293 305 298 285 318 334 312 321 305 320 322 315 309 300 309 318 314 310 303 313 322 328 325 325 324 318 315 310 305 301 295 311 313 278 330 359 38 341 4 304 302 343 319 343 338
267 271 271 271 270 265 276 281 283 280 273 297 305 309 308 304 318 316 309 293 291 298 310 297 292 306 316 334 332 336 324 326 323 321 308 306 301 295 283 310 310 312 8 318 292 276 345 357 1 258 321 335
260 259 265 280 308 316 320 313 314 305 305 308 303 302 291 292 315 306 295 287 284 285 299 305 308 320 346 333 325 320 310 313 318 314 338 324 337 339 327 303 312 324 308 291 265 212 188 227 296 321 322 334
262 245 256 256 266 280 290 295 292 296 295 292 297 294 298 302 300 289 286 291 282 290 300 307 314 340 329 316 303 307 308 300 297 305 333 321 348 315 335 339 318 306 299 283 359 296 253 249 260 276 305 290